Simultaneous Nadir Overpasses (SNOs) Predictions

Prediction of SNOs between METOP-C and LANDSAT-8 Satellite Orbit:

Table of predicted SNOs for the next 14.0 days since TLE Epoch: 11/7/2020
Index Date (METOP-C) Time (METOP-C) Lat,Lon (METOP-C) SZA (METOP-C ) Date (LANDSAT-8) Time (LANDSAT-8) Lat,Lon (LANDSAT-8) SZA (LANDSAT-8 ) Distance(km) Time Diff (sec)
1 11/08/2020 20:42:36 -81.08, 88.54 79.74 11/08/2020 20:42:49 -81.07, 88.53 79.74 0.39 13
2 11/08/2020 21:33:14 81.11,-103.26 100.39 11/08/2020 21:32:14 81.11,-103.36 100.35 1.69 60
3 11/11/2020 16:16:59 -81.08, 155.05 78.95 11/11/2020 16:17:02 -81.09, 155.13 78.94 1.55 3
4 11/11/2020 17:07:37 81.11, -36.73 101.18 11/11/2020 17:06:27 81.12, -36.78 101.14 0.95 70
5 11/14/2020 11:00:44 81.05, 53.39 101.68 11/14/2020 11:01:51 81.05, 53.38 101.70 0.61 67
6 11/14/2020 11:51:24 -81.07,-138.84 78.26 11/14/2020 11:51:17 -81.07,-138.66 78.25 3.04 7
7 11/17/2020 06:35:08 81.06, 119.89 102.37 11/17/2020 06:36:05 81.05, 119.88 102.39 0.55 57
8 11/17/2020 07:25:46 -81.10, -71.62 77.47 11/17/2020 07:25:30 -81.10, -71.77 77.50 2.61 16
9 11/20/2020 02:09:31 81.06,-173.63 103.02 11/20/2020 02:10:18 81.05,-173.66 103.03 0.90 47
